This demonstration page uses our WeatherBlox Daily Observations layout. Learn more.

41.55636, -103.73856

Hourly Observations for June 27, 2020

Temp ( °F °C ) Dew Point ( °F °C ) Humidity (%) Winds ( mph kmh ) Pressure ( in mb ) Visibility ( mi km ) Precip ( " mm )
12:58 am 00:58 Clear 73 22.5 55 12.5 53 53 SSE 17 28 29.94 1014 10 16.0934 0 0
1:58 am 01:58 Clear 69 20.6 54 12.2 59 59 SSW 8 13 29.95 1014 10 16.0934 0 0
2:58 am 02:58 Mostly Cloudy 67 19.7 55 12.8 65 65 SSE 10 17 29.93 1014 10 16.0934 0 0
3:58 am 03:58 Mostly Cloudy 65 18.6 55 12.8 69 69 S 13 20 29.92 1013 10 16.0934 0 0
4:58 am 04:58 Mostly Cloudy 63 17.4 55 12.7 74 74 S 6 9 29.91 1013 10 16.0934 0 0
5:58 am 05:58 Partly Cloudy 61 16 55 12.9 82 82 SSW 8 13 29.9 1013 10 16.0934 0 0
6:58 am 06:58 Mostly Clear 60 15.7 53 11.9 78 78 SSW 7 11 29.89 1012 10 16.0934 0 0
7:58 am 07:58 Clear 60 15.5 52 10.9 74 74 SSE 7 11 29.86 1011 10 16.0934 0 0
8:58 am 08:58 Clear 60 15.5 50 10.1 70 70 SSE 12 19 29.84 1011 10 16.0934 0 0
9:58 am 09:58 Mostly Clear 59 14.9 51 10.3 74 74 Calm 29.85 1011 10 16.0934 0 0
10:58 am 10:58 Mostly Clear 61 16 50 10.1 68 68 SW 15 24 29.82 1010 10 16.0934 0 0
11:58 am 11:58 Sunny 58 14.5 50 10.2 76 76 SSW 16 26 29.84 1010 10 16.0934 0 0
12:58 pm 12:58 Sunny 64 17.8 48 9.1 57 57 WSW 7 11 29.82 1010 10 16.0934 0 0
1:58 pm 13:58 Sunny 71 21.8 45 7.2 39 39 W 9 15 29.8 1009 10 16.0934 0 0
2:58 pm 14:58 Sunny 76 24.4 42 5.5 30 30 NW 10 17 29.77 1008 10 16.0934 0 0
3:58 pm 15:58 Sunny 78 25.6 39 3.9 25 25 WNW 8 13 29.76 1008 10 16.0934 0 0
4:58 pm 16:58 Sunny 82 27.5 42 5.4 24 24 WSW 7 11 29.75 1007 10 16.0934 0 0
5:58 pm 17:58 Sunny 84 29 38 3.3 19 19 W 8 13 29.74 1007 10 16.0934 0 0
6:58 pm 18:58 Sunny 86 30.1 40 4.3 19 19 NW 12 19 29.72 1007 10 16.0934 0 0
7:58 pm 19:58 Sunny 88 31.1 38 3.6 17 17 N 13 20 29.7 1006 10 16.0934 0 0
8:58 pm 20:58 Sunny 89 31.9 37 2.7 16 16 N 10 17 29.66 1004 10 16.0934 0 0
9:58 pm 21:58 Mostly Sunny 88 31.3 35 1.5 15 15 WNW 12 19 29.65 1004 10 16.0934 0 0
10:58 pm 22:58 Mostly Sunny 89 31.6 38 3.6 17 17 Calm 29.62 1003 10 16.0934 0 0
11:58 pm 23:58 Sunny 88 31.1 39 3.7 18 18 E 5 7 29.61 1003 10 16.0934 0 0

Powered by AerisWeather